Location: Biharia
(46.4333°N, 22.8000°E)
Time: 03:29:20
(UTC+00:00)

Cosmos 494 Rocket - Pass Details

Date: 03 June 2022
Orbit: 742 x 770 km, 74.1° (Epoch: 05 July)

Event Time Altitude Azimuth Distance (km) Brightness Sun altitude
Rises 19:05:22 0° 351° (N) 3,193 8.2 -7.5°
Reaches altitude 10° 19:09:55 10° 29° (NNE) 2,264 6.7 -8.0°
Maximum altitude 19:11:10 11° 43° (NE) 2,207 6.4 -8.2°
Drops below altitude 10° 19:12:26 10° 58° (ENE) 2,262 6.3 -8.3°
Enters shadow 19:16:29 - 92° (E) 3,052 6.7 -8.8°
